This demonstration page uses our WeatherBlox Daily Observations layout. Learn more.

Left ArrowRight Arrow

38.89511, -77.03637

Hourly Observations for May 18, 2017

Temp ( °F °C ) Dew Point ( °F °C ) Humidity (%) Winds ( mph kmh ) Pressure ( in mb ) Visibility ( mi km ) Precip ( " mm )
12:52 am 00:52 Cloudy 76 24.4 64 17.8 67 67 S 8 13 29.98 1015 10 16 0.00 0.00
1:52 am 01:52 Cloudy 74 23.3 64 17.8 71 71 S 9 15 29.98 1015 10 16 0.00 0.00
2:52 am 02:52 Mostly Cloudy 74 23.3 62 16.7 67 67 S 9 15 29.97 1015 10 16 0.00 0.00
3:52 am 03:52 Partly Cloudy 72 22.2 62 16.7 71 71 S 7 11 29.97 1015 10 16 0.00 0.00
4:52 am 04:52 Partly Cloudy 71 21.7 62 16.7 73 73 S 8 13 29.97 1015 10 16 0.00 0.00
5:52 am 05:52 Mostly Cloudy 70 21.1 61 16.1 73 73 S 8 13 29.98 1015 10 16 0.00 0.00
6:52 am 06:52 Mostly Cloudy 72 22.2 62 16.7 71 71 S 7 11 30.01 1016 10 16 0.00 0.00
7:52 am 07:52 Mostly Cloudy 72 22.2 63 17.2 73 73 S 7 11 30.02 1017 10 16 0.00 0.00
8:52 am 08:52 Cloudy 77 25 64 17.8 64 64 SSW 9 15 30.03 1017 10 16 0.00 0.00
9:52 am 09:52 Cloudy 76 24.4 65 18.3 69 69 S 8 13 30.03 1017 10 16 0.00 0.00
10:52 am 10:52 Mostly Cloudy 78 25.6 66 18.9 67 67 S 9 15 30.02 1017 10 16 0.00 0.00
11:52 am 11:52 Mostly Cloudy 81 27.2 67 19.4 62 62 S 12 19 30.01 1016 10 16 0.00 0.00
12:52 pm 12:52 Mostly Cloudy 83 28.3 68 20 61 61 S 13 20 29.99 1016 10 16 0.00 0.00
1:52 pm 13:52 Mostly Cloudy 84 28.9 68 20 59 59 S 12 19 29.97 1015 10 16 0.00 0.00
2:52 pm 14:52 Partly Cloudy 86 30 68 20 55 55 S 16 26 29.95 1014 10 16 0.00 0.00
3:52 pm 15:52 Partly Cloudy 86 30 68 20 55 55 S 13 20 29.93 1014 10 16 0.00 0.00
4:52 pm 16:52 Partly Cloudy 87 30.6 68 20 53 53 S 13 20 29.91 1013 10 16 0.00 0.00
5:52 pm 17:52 Partly Cloudy 88 31.1 67 19.4 50 50 S 16 26 29.91 1013 10 16 0.00 0.00
6:52 pm 18:52 Partly Cloudy 85 29.4 67 19.4 55 55 S 13 20 29.90 1012 10 16 0.00 0.00
7:32 pm 19:32 Mostly Cloudy with Thunderstorms 86 30 68 20 55 55 SSW 13 20 29.91 1013 10 16 0.00 0.00
7:52 pm 19:52 Mostly Cloudy with Thunderstorms 85 29.4 68 20 57 57 SSW 14 22 29.92 1013 10 16 0.00 0.00
8:00 pm 20:00 Mostly Cloudy with Thunderstorms 85 29.4 68 20 57 57 SSW 14 22 29.94 1014 10 16 0.00 0.00
8:45 pm 20:45 Mostly Cloudy with Thunderstorms 76 24.4 71 21.7 85 85 W 15 24 29.97 1015 10 16 0.02 0.51
8:52 pm 20:52 Mostly Cloudy with Thunderstorms 75 23.9 70 21.1 84 84 WSW 17 28 29.95 1014 10 16 0.02 0.51
9:04 pm 21:04 Mostly Cloudy with Thunderstorms 72 22.2 66 18.9 82 82 S 10 17 29.94 1014 10 16 0.01 0.25
9:20 pm 21:20 Mostly Cloudy with Thunderstorms 72 22.2 65 18.3 79 79 SW 9 15 29.97 1015 10 16 0.01 0.25
9:37 pm 21:37 Cloudy 73 22.8 66 18.9 79 79 SW 13 20 29.97 1015 10 16 0.01 0.25
9:52 pm 21:52 Mostly Cloudy with Thunderstorms 73 22.8 66 18.9 79 79 SW 15 24 29.97 1015 10 16 0.01 0.25
10:28 pm 22:28 Mostly Cloudy 71 21.7 67 19.4 87 87 SW 7 11 29.97 1015 10 16 0.00 0.00
10:52 pm 22:52 Mostly Cloudy 72 22.2 67 19.4 84 84 SW 7 11 29.95 1014 10 16 0.00 0.00
11:52 pm 23:52 Partly Cloudy 71 21.7 68 20 90 90 S 8 13 29.95 1014 10 16 0.00 0.00

Powered by AerisWeather